Location: Arthez
(43.0833°N, 0.2500°W)
Time: 22:37:56
(UTC+00:00)

KANOPUS-V 4 - Visible Passes

Search period start: 10 August 2022 00:00
Search period end: 20 August 2022 00:00
Orbit: 503 x 505 km, 97.4° (Epoch: 10 August)

Date Brightness Start Highest point End Pass type
(mag) Time Alt. Az. Time Alt. Az. Time Alt. Az.
10 Aug ? 01:00:29 10° NNW 01:01:02 12° NW 01:01:02 12° NW visible
10 Aug ? 23:07:34 10° NE 23:07:43 11° NE 23:07:43 11° NE visible
11 Aug ? 00:41:29 10° NNW 00:42:29 15° NNW 00:42:29 15° NNW visible
12 Aug ? 00:22:48 10° N 00:23:55 18° NNW 00:23:55 18° NNW visible
13 Aug ? 00:04:20 10° N 00:05:22 18° N 00:05:22 18° N visible
13 Aug ? 23:46:00 10° NNE 23:46:48 16° NNE 23:46:48 16° NNE visible
14 Aug ? 23:27:49 10° NNE 23:28:14 13° NNE 23:28:14 13° NNE visible
15 Aug ? 01:02:58 10° NW 01:03:00 10° NW 01:03:00 10° NW visible
16 Aug ? 00:43:53 10° NNW 00:44:26 13° NNW 00:44:26 13° NNW visible
17 Aug ? 00:25:10 10° N 00:25:51 14° NNW 00:25:51 14° NNW visible
18 Aug ? 00:06:39 10° N 00:07:17 14° N 00:07:17 14° N visible
18 Aug ? 23:48:17 10° NNE 23:48:42 13° NNE 23:48:42 13° NNE visible
19 Aug ? 23:30:05 10° NNE 23:30:07 10° NNE 23:30:07 10° NNE visible
